Location: Ostrava
(49.8330°N, 18.2830°E)
Time: 23:41:23
(UTC+02:00)

NOAA 19 - Visible Passes

Search period start: 03 August 2015 00:00
Search period end: 13 August 2015 00:00
Orbit: 842 x 863 km, 99.0° (Epoch: 03 August)

Date Brightness Start Highest point End Pass type
(mag) Time Alt. Az. Time Alt. Az. Time Alt. Az.
03 Aug 6.5 02:41:59 10° NNE 02:46:55 33° E 02:51:24 12° SSE visible
03 Aug 5.8 04:22:35 10° N 04:27:48 44° WNW 04:33:00 10° SW visible
04 Aug 6.8 02:30:54 10° NE 02:35:32 28° E 02:39:57 11° SSE visible
04 Aug 5.5 04:11:14 10° N 04:16:35 53° WNW 04:21:57 10° SW visible
05 Aug 7.1 02:19:54 10° NE 02:24:07 23° E 02:28:29 10° SE visible
05 Aug 5.3 03:59:54 10° N 04:05:22 65° WNW 04:10:31 12° SSW visible
06 Aug 7.3 02:08:59 10° NE 02:12:42 19° E 02:16:34 10° SE visible
06 Aug 5.2 03:48:36 10° NNE 03:54:08 78° WNW 03:59:02 13° SSW visible
07 Aug 7.5 01:58:15 10° NE 02:01:14 15° E 02:04:28 10° ESE visible
07 Aug 5.2 03:37:19 10° NNE 03:42:52 87° ESE 03:47:35 15° SSW visible
08 Aug 7.6 01:47:50 10° ENE 01:49:45 12° E 01:52:00 10° ESE visible
08 Aug 5.4 03:26:04 10° NNE 03:31:35 73° ESE 03:36:06 16° S visible
09 Aug 5.6 03:14:50 10° NNE 03:20:18 59° E 03:24:38 17° S visible
10 Aug 5.9 03:03:38 10° NNE 03:08:59 49° E 03:13:09 17° S visible
10 Aug 6.2 04:44:42 10° N 04:49:33 32° WNW 04:54:21 10° WSW visible
11 Aug 6.3 02:52:28 10° NNE 02:57:38 40° E 03:01:41 16° SSE visible
11 Aug 6.0 04:33:18 10° N 04:38:23 38° WNW 04:43:25 10° SW visible
12 Aug 6.6 02:41:21 10° NNE 02:46:17 33° E 02:50:12 15° SSE visible
12 Aug 5.7 04:21:55 10° N 04:27:11 45° WNW 04:32:15 11° SW visible
